Date,FT LW Heater Volts,FT SM Heater Volts
28 Apr 2023 1:28,0.43885,0.00408
28 Apr 2023 3:08,0.43861,0.00405
28 Apr 2023 4:53,0.43879,0.00406
28 Apr 2023 6:38,0.43847,0.00406
28 Apr 2023 8:18,0.43783,0.00405
28 Apr 2023 9:59,0.43763,0.00407
28 Apr 2023 11:39,0.43731,0.00406
28 Apr 2023 13:19,0.43690,0.00403
28 Apr 2023 14:59,0.43709,0.00405
28 Apr 2023 16:39,0.43809,0.00407
28 Apr 2023 18:24,0.43837,0.00406
28 Apr 2023 20:10,0.43808,0.00407
28 Apr 2023 21:50,0.43748,0.00408
28 Apr 2023 23:30,0.43774,0.00406
29 Apr 2023 1:10,0.43812,0.00407
29 Apr 2023 2:50,0.43786,0.00407
29 Apr 2023 4:30,0.43760,0.00405
29 Apr 2023 6:16,0.43746,0.00405
29 Apr 2023 8:01,0.43717,0.00407
29 Apr 2023 9:41,0.43689,0.00407
29 Apr 2023 11:21,0.43639,0.00405
29 Apr 2023 13:01,0.43588,0.00409
29 Apr 2023 14:41,0.43606,0.00406
29 Apr 2023 16:22,0.43711,0.00406
29 Apr 2023 18:02,0.43738,0.00406
29 Apr 2023 19:47,0.43733,0.00405
29 Apr 2023 21:32,0.43664,0.00406
29 Apr 2023 23:12,0.43693,0.00407
30 Apr 2023 0:52,0.43740,0.00408
30 Apr 2023 2:33,0.43700,0.00408
30 Apr 2023 4:13,0.43653,0.00406
30 Apr 2023 5:53,0.43646,0.00408
30 Apr 2023 7:38,0.43644,0.00407
30 Apr 2023 9:23,0.43591,0.00408
30 Apr 2023 11:03,0.43545,0.00406
30 Apr 2023 12:44,0.43485,0.00405
30 Apr 2023 14:24,0.43487,0.00407
30 Apr 2023 16:04,0.43594,0.00405
30 Apr 2023 17:44,0.43622,0.00406
30 Apr 2023 19:24,0.43599,0.00406
30 Apr 2023 21:04,0.43555,0.00406
30 Apr 2023 22:55,0.43578,0.00405
1 May 2023 0:35,0.43610,0.00405
1 May 2023 2:15,0.43569,0.00405
1 May 2023 3:55,0.43539,0.00407
1 May 2023 5:35,0.43554,0.00406
1 May 2023 7:15,0.43528,0.00406
1 May 2023 9:01,0.43561,0.00406
1 May 2023 10:46,0.43506,0.00406
1 May 2023 12:26,0.43452,0.00406
1 May 2023 14:06,0.43438,0.00406
1 May 2023 15:46,0.43556,0.00406
1 May 2023 17:27,0.43608,0.00406
1 May 2023 19:07,0.43598,0.00406
1 May 2023 20:47,0.43588,0.00407
1 May 2023 22:32,0.43618,0.00407
2 May 2023 0:17,0.43624,0.00405
2 May 2023 1:57,0.43597,0.00405
2 May 2023 3:38,0.43576,0.00405
2 May 2023 5:18,0.43609,0.00405
2 May 2023 6:58,0.43596,0.00404
2 May 2023 8:38,0.43584,0.00407
2 May 2023 10:23,0.43571,0.00406
2 May 2023 12:08,0.43549,0.00407
2 May 2023 13:49,0.43541,0.00406
2 May 2023 15:29,0.43622,0.00409
2 May 2023 17:09,0.43688,0.00407
2 May 2023 18:49,0.43704,0.00409
2 May 2023 20:29,0.43702,0.00407
2 May 2023 22:09,0.43720,0.00408
2 May 2023 23:55,0.43717,0.00408
3 May 2023 1:40,0.43671,0.00407
3 May 2023 3:20,0.43657,0.00406
3 May 2023 5:00,0.43681,0.00409
3 May 2023 6:40,0.43667,0.00408
3 May 2023 8:20,0.43651,0.00408
3 May 2023 9:58,0.43648,0.00408
3 May 2023 11:46,0.43647,0.00409
3 May 2023 13:31,0.43596,0.00410
3 May 2023 15:11,0.43670,0.00408
3 May 2023 16:51,0.43765,0.00410
3 May 2023 18:31,0.43752,0.00409
3 May 2023 20:12,0.43734,0.00407
3 May 2023 21:52,0.43732,0.00408
3 May 2023 23:32,0.43693,0.00407
4 May 2023 1:17,0.43670,0.00409
4 May 2023 3:02,0.43648,0.00405
4 May 2023 4:42,0.43664,0.00408
4 May 2023 6:23,0.43620,0.00408
4 May 2023 8:03,0.43623,0.00407
4 May 2023 9:43,0.43612,0.00407
4 May 2023 11:23,0.43603,0.00407
4 May 2023 13:08,0.43579,0.00409
4 May 2023 14:53,0.43627,0.00410
4 May 2023 16:34,0.43734,0.00411
4 May 2023 18:14,0.43729,0.00409
4 May 2023 19:54,0.43722,0.00409
4 May 2023 21:34,0.43719,0.00408
4 May 2023 23:14,0.43717,0.00409
5 May 2023 0:55,0.43710,0.00408
5 May 2023 2:40,0.43710,0.00409
5 May 2023 4:25,0.43724,0.00409
5 May 2023 6:05,0.43684,0.00411
5 May 2023 7:45,0.43657,0.00409
5 May 2023 9:25,0.43667,0.00409
5 May 2023 11:06,0.43665,0.00408
5 May 2023 12:46,0.43645,0.00409
5 May 2023 14:31,0.43687,0.00410
5 May 2023 16:16,0.43768,0.00411
5 May 2023 17:56,0.43841,0.00408
5 May 2023 19:36,0.43833,0.00409
5 May 2023 21:17,0.43780,0.00409
5 May 2023 22:57,0.43785,0.00406
6 May 2023 0:37,0.43785,0.00406
6 May 2023 2:17,0.43788,0.00405
6 May 2023 4:02,0.43821,0.00408
6 May 2023 5:47,0.43807,0.00407
6 May 2023 7:28,0.43756,0.00406
6 May 2023 9:08,0.43743,0.00406
6 May 2023 10:48,0.43767,0.00407
6 May 2023 12:28,0.43746,0.00407
6 May 2023 14:08,0.43742,0.00408
6 May 2023 15:48,0.43806,0.00407
6 May 2023 17:34,0.43872,0.00407
6 May 2023 19:19,0.43859,0.00407
6 May 2023 20:59,0.43821,0.00404
6 May 2023 22:39,0.43849,0.00406
7 May 2023 0:19,0.43834,0.00408
7 May 2023 1:59,0.43833,0.00408
7 May 2023 3:40,0.43865,0.00406
7 May 2023 5:25,0.43874,0.00405
7 May 2023 7:10,0.43832,0.00407
7 May 2023 8:50,0.43817,0.00408
7 May 2023 10:30,0.43827,0.00407
7 May 2023 12:10,0.43798,0.00406
7 May 2023 13:51,0.43777,0.00408
7 May 2023 15:31,0.43848,0.00407
7 May 2023 17:11,0.43896,0.00409
7 May 2023 18:56,0.43919,0.00408
7 May 2023 20:41,0.43860,0.00407
7 May 2023 22:21,0.43879,0.00409
7 May 2023 23:47,0.43811,0.00407
8 May 2023 0:02,0.43857,0.00408
8 May 2023 1:42,0.43857,0.00407
8 May 2023 3:22,0.43862,0.00409
8 May 2023 5:02,0.43886,0.00409
8 May 2023 6:47,0.43863,0.00408
8 May 2023 8:33,0.43839,0.00406
8 May 2023 10:13,0.43840,0.00408
8 May 2023 11:53,0.43801,0.00406
8 May 2023 13:33,0.43764,0.00407
8 May 2023 15:09,0.43815,0.00408
8 May 2023 16:53,0.43867,0.00409
8 May 2023 18:34,0.43920,0.00407
8 May 2023 20:19,0.43892,0.00410
8 May 2023 22:04,0.43870,0.00407
8 May 2023 23:44,0.43866,0.00408
9 May 2023 1:24,0.43877,0.00410
9 May 2023 3:04,0.43865,0.00407
9 May 2023 4:45,0.43891,0.00407
9 May 2023 6:25,0.43850,0.00405
9 May 2023 8:10,0.43847,0.00407
9 May 2023 9:55,0.43830,0.00408
9 May 2023 11:35,0.43810,0.00407
9 May 2023 13:15,0.43770,0.00406
9 May 2023 14:56,0.43804,0.00407
9 May 2023 16:36,0.43870,0.00410
9 May 2023 18:16,0.43928,0.00408
9 May 2023 19:56,0.43899,0.00407
9 May 2023 21:41,0.43883,0.00407
9 May 2023 23:26,0.43907,0.00409
10 May 2023 1:07,0.43899,0.00408
10 May 2023 2:47,0.43882,0.00407
10 May 2023 4:27,0.43902,0.00407
10 May 2023 6:07,0.43857,0.00407
10 May 2023 7:52,0.43843,0.00409
10 May 2023 9:32,0.43820,0.00407
10 May 2023 11:18,0.43797,0.00407
11 May 2023 0:44,0.43886,0.00410
11 May 2023 2:29,0.43889,0.00407
11 May 2023 4:09,0.43883,0.00409
11 May 2023 5:40,0.43860,0.00408
11 May 2023 7:26,0.43860,0.00408
11 May 2023 9:10,0.43845,0.00408
11 May 2023 10:52,0.43843,0.00408
11 May 2023 12:40,0.43791,0.00407
11 May 2023 14:20,0.43787,0.00410
11 May 2023 16:00,0.43880,0.00408
11 May 2023 17:42,0.43929,0.00410
11 May 2023 19:21,0.43933,0.00409
11 May 2023 21:01,0.43878,0.00409
11 May 2023 22:41,0.43874,0.00407
12 May 2023 0:26,0.43887,0.00411
12 May 2023 2:12,0.43874,0.00407
12 May 2023 3:52,0.43867,0.00407
12 May 2023 5:32,0.43869,0.00407
12 May 2023 7:12,0.43830,0.00407
12 May 2023 8:52,0.43821,0.00407
12 May 2023 10:32,0.43809,0.00407
12 May 2023 12:18,0.43775,0.00408
12 May 2023 14:03,0.43770,0.00409
12 May 2023 15:43,0.43834,0.00407
12 May 2023 17:23,0.43895,0.00408
12 May 2023 19:03,0.43924,0.00409
12 May 2023 20:43,0.43870,0.00408
12 May 2023 22:24,0.43834,0.00408
12 May 2023 23:54,0.43808,0.00406
13 May 2023 0:04,0.43845,0.00407
13 May 2023 1:49,0.43858,0.00409
13 May 2023 3:34,0.43835,0.00407
13 May 2023 5:14,0.43860,0.00410
13 May 2023 6:54,0.43828,0.00406
13 May 2023 8:35,0.43812,0.00406
13 May 2023 10:15,0.43811,0.00409
13 May 2023 11:55,0.43751,0.00406
13 May 2023 13:40,0.43727,0.00407
13 May 2023 15:25,0.43772,0.00407
13 May 2023 17:05,0.43854,0.00407
13 May 2023 18:46,0.43884,0.00409
13 May 2023 20:26,0.43860,0.00409
13 May 2023 22:06,0.43812,0.00408
13 May 2023 23:46,0.43800,0.00409
14 May 2023 1:26,0.43838,0.00408
14 May 2023 3:11,0.43854,0.00410
14 May 2023 4:57,0.43852,0.00408
14 May 2023 6:37,0.43815,0.00409
14 May 2023 8:17,0.43808,0.00408
14 May 2023 9:57,0.43790,0.00407
14 May 2023 11:37,0.43740,0.00407
14 May 2023 13:17,0.43701,0.00407
14 May 2023 15:03,0.43746,0.00409
14 May 2023 16:48,0.43839,0.00408
14 May 2023 18:28,0.43868,0.00410
14 May 2023 20:08,0.43861,0.00407
14 May 2023 21:48,0.43853,0.00408
14 May 2023 23:28,0.43833,0.00407
15 May 2023 1:09,0.43850,0.00412
15 May 2023 2:49,0.43856,0.00409
15 May 2023 4:34,0.43859,0.00406
15 May 2023 6:19,0.43847,0.00408
15 May 2023 7:59,0.43831,0.00409
15 May 2023 9:39,0.43812,0.00408
15 May 2023 11:20,0.43769,0.00408
15 May 2023 13:00,0.43729,0.00410
15 May 2023 14:40,0.43730,0.00409
15 May 2023 16:20,0.43826,0.00407
15 May 2023 18:05,0.43879,0.00409
15 May 2023 19:55,0.43830,0.00410
15 May 2023 21:31,0.43786,0.00406
15 May 2023 23:11,0.43787,0.00409
16 May 2023 0:51,0.43785,0.00409
16 May 2023 2:31,0.43770,0.00408
16 May 2023 4:11,0.43778,0.00408
16 May 2023 5:57,0.43773,0.00407
16 May 2023 7:42,0.43744,0.00408
16 May 2023 9:22,0.43737,0.00409
16 May 2023 11:02,0.43731,0.00408
16 May 2023 12:42,0.43704,0.00407
16 May 2023 14:22,0.43705,0.00406
16 May 2023 16:03,0.43788,0.00410
16 May 2023 17:43,0.43844,0.00407
16 May 2023 19:28,0.43818,0.00411
16 May 2023 21:13,0.43759,0.00408
16 May 2023 22:53,0.43742,0.00405
17 May 2023 0:33,0.43752,0.00408
17 May 2023 2:14,0.43754,0.00408
17 May 2023 3:54,0.43753,0.00407
17 May 2023 5:34,0.43734,0.00409
17 May 2023 7:19,0.43718,0.00407
17 May 2023 9:04,0.43696,0.00409
17 May 2023 10:49,0.43712,0.00407
17 May 2023 12:25,0.43675,0.00407
17 May 2023 14:05,0.43664,0.00406
17 May 2023 15:45,0.43729,0.00409
17 May 2023 17:25,0.43765,0.00404
17 May 2023 19:05,0.43757,0.00408
17 May 2023 20:50,0.43727,0.00408
17 May 2023 22:36,0.43686,0.00408
18 May 2023 0:16,0.43711,0.00406
18 May 2023 1:56,0.43725,0.00405
18 May 2023 3:36,0.43728,0.00409
18 May 2023 5:16,0.43714,0.00407
18 May 2023 6:56,0.43686,0.00406
18 May 2023 8:42,0.43699,0.00407
18 May 2023 10:33,0.43716,0.00406
18 May 2023 12:02,0.43685,0.00407
18 May 2023 13:47,0.43669,0.00406
18 May 2023 15:27,0.43729,0.00407
18 May 2023 17:07,0.43789,0.00408
18 May 2023 18:48,0.43764,0.00406
18 May 2023 20:28,0.43707,0.00407
18 May 2023 22:13,0.43697,0.00407
18 May 2023 23:58,0.43700,0.00407
19 May 2023 1:38,0.43728,0.00408
19 May 2023 3:19,0.43739,0.00406
19 May 2023 4:59,0.43723,0.00407
19 May 2023 6:39,0.43704,0.00408
19 May 2023 8:19,0.43728,0.00408
19 May 2023 10:04,0.43742,0.00409
19 May 2023 11:49,0.43727,0.00407
19 May 2023 13:33,0.43683,0.00406
19 May 2023 15:10,0.43704,0.00409
19 May 2023 16:50,0.43790,0.00407
19 May 2023 18:32,0.43775,0.00409
19 May 2023 20:10,0.43732,0.00407
19 May 2023 21:50,0.43710,0.00405
19 May 2023 23:36,0.43726,0.00405
20 May 2023 1:21,0.43752,0.00405
20 May 2023 3:01,0.43750,0.00408
20 May 2023 4:41,0.43723,0.00406
20 May 2023 6:21,0.43703,0.00407
20 May 2023 8:01,0.43721,0.00407
20 May 2023 9:42,0.43733,0.00409
20 May 2023 11:27,0.43730,0.00405
20 May 2023 13:12,0.43680,0.00404
20 May 2023 14:52,0.43702,0.00408
20 May 2023 16:32,0.43786,0.00408
20 May 2023 18:12,0.43786,0.00406
20 May 2023 19:53,0.43759,0.00406
20 May 2023 21:33,0.43732,0.00408
20 May 2023 23:13,0.43733,0.00407
21 May 2023 0:58,0.43794,0.00407
21 May 2023 2:43,0.43782,0.00404
21 May 2023 4:23,0.43763,0.00408
21 May 2023 6:04,0.43763,0.00407
21 May 2023 7:44,0.43768,0.00407
21 May 2023 9:24,0.43785,0.00407
21 May 2023 11:04,0.43774,0.00405
21 May 2023 12:49,0.43727,0.00407
21 May 2023 14:34,0.43737,0.00407
21 May 2023 16:15,0.43831,0.00408
21 May 2023 17:55,0.43847,0.00408
21 May 2023 19:35,0.43807,0.00406
21 May 2023 21:15,0.43754,0.00406
21 May 2023 22:55,0.43740,0.00405
22 May 2023 0:35,0.43754,0.00405
22 May 2023 2:21,0.43759,0.00405
22 May 2023 4:06,0.43747,0.00403
22 May 2023 5:46,0.43762,0.00406
22 May 2023 7:26,0.43770,0.00405
22 May 2023 9:06,0.43785,0.00407
22 May 2023 10:46,0.43771,0.00405
22 May 2023 12:27,0.43727,0.00405
22 May 2023 14:12,0.43742,0.00406
22 May 2023 15:57,0.43815,0.00406
22 May 2023 17:37,0.43824,0.00408
22 May 2023 19:17,0.43797,0.00405
22 May 2023 20:58,0.43738,0.00406
22 May 2023 22:38,0.43698,0.00405
23 May 2023 0:18,0.43680,0.00405
23 May 2023 1:58,0.43686,0.00406
23 May 2023 3:43,0.43705,0.00406
23 May 2023 5:28,0.43734,0.00405
23 May 2023 7:09,0.43737,0.00404
23 May 2023 8:49,0.43731,0.00403
23 May 2023 10:29,0.43705,0.00408
23 May 2023 12:09,0.43669,0.00405
23 May 2023 13:49,0.43649,0.00405
23 May 2023 15:34,0.43758,0.00406
23 May 2023 17:20,0.43826,0.00409
23 May 2023 19:00,0.43780,0.00407
23 May 2023 20:40,0.43726,0.00406
23 May 2023 22:20,0.43688,0.00405
23 May 2023 23:45,0.43602,0.00405
24 May 2023 0:00,0.43652,0.00405
24 May 2023 1:40,0.43661,0.00403
24 May 2023 3:21,0.43653,0.00405
24 May 2023 5:06,0.43695,0.00406
24 May 2023 6:51,0.43663,0.00406
24 May 2023 8:31,0.43656,0.00404
24 May 2023 10:11,0.43636,0.00405
24 May 2023 11:51,0.43635,0.00401
24 May 2023 13:32,0.43629,0.00405
24 May 2023 15:12,0.43703,0.00406
24 May 2023 16:52,0.43793,0.00408
24 May 2023 18:37,0.43787,0.00408
24 May 2023 20:22,0.43755,0.00407
24 May 2023 22:02,0.43700,0.00404
24 May 2023 23:43,0.43662,0.00406
25 May 2023 1:23,0.43677,0.00404
25 May 2023 3:03,0.43682,0.00403
25 May 2023 4:43,0.43700,0.00408
25 May 2023 6:28,0.43695,0.00405
25 May 2023 8:13,0.43664,0.00407
25 May 2023 9:54,0.43662,0.00406
25 May 2023 11:34,0.43659,0.00405
25 May 2023 13:14,0.43624,0.00405
25 May 2023 14:54,0.43650,0.00408
25 May 2023 16:34,0.43733,0.00408
25 May 2023 18:18,0.43743,0.00406
25 May 2023 20:00,0.43728,0.00406
25 May 2023 21:45,0.43636,0.00406
25 May 2023 23:25,0.43618,0.00407
26 May 2023 1:05,0.43609,0.00406
26 May 2023 2:45,0.43620,0.00406
26 May 2023 4:25,0.43653,0.00404
26 May 2023 6:06,0.43641,0.00404
26 May 2023 7:51,0.43653,0.00408
26 May 2023 9:36,0.43622,0.00406
26 May 2023 11:16,0.43604,0.00407
26 May 2023 12:56,0.43570,0.00406
26 May 2023 14:37,0.43580,0.00405
26 May 2023 16:17,0.43678,0.00408
26 May 2023 17:57,0.43719,0.00408
26 May 2023 19:37,0.43691,0.00406
26 May 2023 21:22,0.43593,0.00404
26 May 2023 23:07,0.43556,0.00406
27 May 2023 0:48,0.43569,0.00407
27 May 2023 2:28,0.43586,0.00405
27 May 2023 4:08,0.43627,0.00406
27 May 2023 5:48,0.43620,0.00408
27 May 2023 7:28,0.43595,0.00406
27 May 2023 9:13,0.43566,0.00405
27 May 2023 10:59,0.43515,0.00404
27 May 2023 12:39,0.43481,0.00407
27 May 2023 14:19,0.43466,0.00406
27 May 2023 15:59,0.43570,0.00407
27 May 2023 17:39,0.43625,0.00405
27 May 2023 19:19,0.43583,0.00405
27 May 2023 21:00,0.43502,0.00403
27 May 2023 22:45,0.43465,0.00405
28 May 2023 0:30,0.43453,0.00405
28 May 2023 2:10,0.43470,0.00408
28 May 2023 3:50,0.43531,0.00406
28 May 2023 5:30,0.43549,0.00406
28 May 2023 7:11,0.43529,0.00407
28 May 2023 8:51,0.43504,0.00404
28 May 2023 10:36,0.43465,0.00405
28 May 2023 12:21,0.43421,0.00404
28 May 2023 14:01,0.43389,0.00406
28 May 2023 15:41,0.43473,0.00406
28 May 2023 17:22,0.43513,0.00406
28 May 2023 19:02,0.43479,0.00406
28 May 2023 20:42,0.43413,0.00405
28 May 2023 22:22,0.43358,0.00405
28 May 2023 23:52,0.43309,0.00401
29 May 2023 0:07,0.43358,0.00403
29 May 2023 1:52,0.43367,0.00406
29 May 2023 3:33,0.43400,0.00406
29 May 2023 5:13,0.43425,0.00407
29 May 2023 6:53,0.43389,0.00405
29 May 2023 8:33,0.43355,0.00405
29 May 2023 10:13,0.43324,0.00405
29 May 2023 11:58,0.43318,0.00405
29 May 2023 13:44,0.43290,0.00405
29 May 2023 15:24,0.43358,0.00406
29 May 2023 17:04,0.43430,0.00406
29 May 2023 18:44,0.43412,0.00406
29 May 2023 20:24,0.43366,0.00404
29 May 2023 22:05,0.43309,0.00404
29 May 2023 23:45,0.43273,0.00403
30 May 2023 1:30,0.43289,0.00407
30 May 2023 3:15,0.43317,0.00405
30 May 2023 4:55,0.43347,0.00402
30 May 2023 6:35,0.43318,0.00405
30 May 2023 8:16,0.43256,0.00404
30 May 2023 9:56,0.43230,0.00403
30 May 2023 11:36,0.43218,0.00404
30 May 2023 13:21,0.43189,0.00404
30 May 2023 15:06,0.43225,0.00406
30 May 2023 16:46,0.43295,0.00408
30 May 2023 18:27,0.43289,0.00404
30 May 2023 20:07,0.43239,0.00402
30 May 2023 21:47,0.43202,0.00405
30 May 2023 23:27,0.43206,0.00403
31 May 2023 1:07,0.43218,0.00403
31 May 2023 2:52,0.43250,0.00405
31 May 2023 4:38,0.43271,0.00405
31 May 2023 6:18,0.43256,0.00404
31 May 2023 7:58,0.43223,0.00404
31 May 2023 9:38,0.43215,0.00406
31 May 2023 11:18,0.43222,0.00403
31 May 2023 12:58,0.43181,0.00405
31 May 2023 14:44,0.43203,0.00407
31 May 2023 16:29,0.43295,0.00404
31 May 2023 18:09,0.43318,0.00404
31 May 2023 19:49,0.43245,0.00403
31 May 2023 21:29,0.43212,0.00405
31 May 2023 23:09,0.43210,0.00404
1 Jun 2023 0:50,0.43245,0.00406
1 Jun 2023 2:30,0.43278,0.00406
1 Jun 2023 4:15,0.43308,0.00406
1 Jun 2023 6:00,0.43284,0.00405
1 Jun 2023 7:40,0.43250,0.00404
1 Jun 2023 9:20,0.43227,0.00404
1 Jun 2023 11:01,0.43229,0.00404
1 Jun 2023 12:41,0.43213,0.00405
1 Jun 2023 14:21,0.43206,0.00404
1 Jun 2023 16:06,0.43284,0.00406
1 Jun 2023 17:51,0.43312,0.00406
1 Jun 2023 19:31,0.43254,0.00404
1 Jun 2023 21:12,0.43228,0.00406
1 Jun 2023 22:52,0.43236,0.00405
2 Jun 2023 0:32,0.43259,0.00405
2 Jun 2023 2:12,0.43263,0.00404
2 Jun 2023 3:52,0.43287,0.00402
2 Jun 2023 5:37,0.43293,0.00405
2 Jun 2023 7:23,0.43257,0.00404
2 Jun 2023 9:03,0.43258,0.00403
2 Jun 2023 10:43,0.43243,0.00403
2 Jun 2023 12:23,0.43228,0.00405
2 Jun 2023 14:03,0.43228,0.00404
2 Jun 2023 15:44,0.43285,0.00406
2 Jun 2023 17:24,0.43323,0.00407
2 Jun 2023 19:09,0.43326,0.00404
2 Jun 2023 20:54,0.43276,0.00403
2 Jun 2023 22:34,0.43262,0.00402
2 Jun 2023 23:59,0.43244,0.00402
3 Jun 2023 0:14,0.43285,0.00403
3 Jun 2023 1:55,0.43312,0.00404
3 Jun 2023 3:35,0.43315,0.00404
3 Jun 2023 5:15,0.43318,0.00404
3 Jun 2023 7:00,0.43301,0.00403
3 Jun 2023 8:45,0.43287,0.00405
3 Jun 2023 10:25,0.43261,0.00406
3 Jun 2023 12:06,0.43259,0.00406
3 Jun 2023 13:46,0.43263,0.00404
3 Jun 2023 15:26,0.43312,0.00405
3 Jun 2023 17:06,0.43370,0.00403
3 Jun 2023 18:46,0.43390,0.00405
3 Jun 2023 20:31,0.43399,0.00405
3 Jun 2023 22:17,0.43361,0.00403
3 Jun 2023 23:57,0.43386,0.00407
4 Jun 2023 1:37,0.43410,0.00403
4 Jun 2023 3:17,0.43424,0.00406
4 Jun 2023 4:57,0.43449,0.00402
4 Jun 2023 6:37,0.43427,0.00403
4 Jun 2023 8:23,0.43437,0.00404
4 Jun 2023 10:08,0.43380,0.00406
4 Jun 2023 11:48,0.43371,0.00403
4 Jun 2023 13:28,0.43369,0.00402
4 Jun 2023 15:08,0.43416,0.00404
4 Jun 2023 16:48,0.43494,0.00402
4 Jun 2023 18:29,0.43516,0.00404
4 Jun 2023 20:09,0.43509,0.00402
4 Jun 2023 21:54,0.43473,0.00403
4 Jun 2023 23:39,0.43482,0.00403
5 Jun 2023 1:19,0.43509,0.00401
5 Jun 2023 2:59,0.43520,0.00403
5 Jun 2023 4:45,0.43536,0.00401
5 Jun 2023 6:20,0.43509,0.00400
5 Jun 2023 8:00,0.43502,0.00403
5 Jun 2023 9:45,0.43465,0.00404
5 Jun 2023 11:35,0.43435,0.00405
5 Jun 2023 13:10,0.43417,0.00403
5 Jun 2023 14:51,0.43451,0.00402
5 Jun 2023 16:31,0.43524,0.00404
5 Jun 2023 18:11,0.43568,0.00402
5 Jun 2023 19:51,0.43585,0.00402
5 Jun 2023 21:31,0.43523,0.00403
5 Jun 2023 23:16,0.43507,0.00403
6 Jun 2023 1:02,0.43523,0.00403
6 Jun 2023 2:42,0.43538,0.00403
6 Jun 2023 4:22,0.43558,0.00402
6 Jun 2023 6:02,0.43533,0.00401
6 Jun 2023 7:42,0.43512,0.00400
6 Jun 2023 9:23,0.43483,0.00401
6 Jun 2023 11:08,0.43464,0.00402
6 Jun 2023 12:53,0.43421,0.00402
6 Jun 2023 14:33,0.43412,0.00402
6 Jun 2023 16:13,0.43499,0.00405
6 Jun 2023 17:53,0.43550,0.00402
6 Jun 2023 19:34,0.43551,0.00402
6 Jun 2023 21:14,0.43508,0.00403
6 Jun 2023 22:54,0.43465,0.00402
7 Jun 2023 0:39,0.43487,0.00401
7 Jun 2023 2:24,0.43502,0.00402
7 Jun 2023 4:04,0.43523,0.00402
7 Jun 2023 5:45,0.43516,0.00401
7 Jun 2023 7:25,0.43484,0.00401
7 Jun 2023 9:05,0.43464,0.00403
7 Jun 2023 10:45,0.43440,0.00404
7 Jun 2023 12:30,0.43410,0.00402
7 Jun 2023 14:20,0.43376,0.00401
7 Jun 2023 16:00,0.43468,0.00404
7 Jun 2023 17:36,0.43529,0.00403
7 Jun 2023 19:16,0.43520,0.00403
7 Jun 2023 20:56,0.43464,0.00403
7 Jun 2023 22:36,0.43423,0.00404
8 Jun 2023 0:16,0.43438,0.00404
8 Jun 2023 2:02,0.43474,0.00401
8 Jun 2023 3:47,0.43485,0.00400
8 Jun 2023 5:27,0.43512,0.00405
8 Jun 2023 7:07,0.43480,0.00402
8 Jun 2023 8:47,0.43464,0.00401
8 Jun 2023 10:27,0.43429,0.00403
8 Jun 2023 12:08,0.43402,0.00402
8 Jun 2023 13:53,0.43385,0.00399
8 Jun 2023 15:38,0.43437,0.00399
8 Jun 2023 17:18,0.43495,0.00402
8 Jun 2023 18:58,0.43495,0.00401
8 Jun 2023 20:38,0.43451,0.00401
8 Jun 2023 22:19,0.43409,0.00402
8 Jun 2023 23:59,0.43433,0.00403
9 Jun 2023 1:39,0.43480,0.00402
9 Jun 2023 3:24,0.43507,0.00405
9 Jun 2023 5:09,0.43517,0.00403
9 Jun 2023 6:49,0.43489,0.00402
9 Jun 2023 8:30,0.43462,0.00402
9 Jun 2023 10:10,0.43424,0.00402
9 Jun 2023 11:50,0.43394,0.00404
9 Jun 2023 13:30,0.43375,0.00402
9 Jun 2023 15:15,0.43420,0.00405
9 Jun 2023 17:00,0.43493,0.00403
9 Jun 2023 18:41,0.43510,0.00404
9 Jun 2023 20:21,0.43470,0.00404
9 Jun 2023 22:01,0.43414,0.00401
9 Jun 2023 23:41,0.43433,0.00403
10 Jun 2023 1:21,0.43475,0.00403
10 Jun 2023 3:02,0.43505,0.00404
10 Jun 2023 4:47,0.43512,0.00406
10 Jun 2023 6:32,0.43465,0.00402
10 Jun 2023 8:12,0.43413,0.00404
10 Jun 2023 9:52,0.43390,0.00405
10 Jun 2023 11:32,0.43362,0.00402
10 Jun 2023 13:13,0.43332,0.00403
10 Jun 2023 14:53,0.43343,0.00402
10 Jun 2023 16:33,0.43451,0.00404
10 Jun 2023 18:18,0.43487,0.00404
10 Jun 2023 20:03,0.43441,0.00401
10 Jun 2023 21:43,0.43383,0.00400
10 Jun 2023 23:24,0.43410,0.00402
11 Jun 2023 1:04,0.43454,0.00403
11 Jun 2023 2:44,0.43476,0.00403
11 Jun 2023 4:24,0.43478,0.00402
11 Jun 2023 6:09,0.43464,0.00400
11 Jun 2023 7:54,0.43378,0.00404
11 Jun 2023 9:35,0.43347,0.00402
11 Jun 2023 11:15,0.43336,0.00403
11 Jun 2023 12:55,0.43314,0.00401
11 Jun 2023 14:35,0.43311,0.00403
11 Jun 2023 16:15,0.43417,0.00404
11 Jun 2023 17:55,0.43469,0.00403
11 Jun 2023 19:41,0.43483,0.00403
11 Jun 2023 21:26,0.43428,0.00402
11 Jun 2023 23:06,0.43448,0.00404
12 Jun 2023 0:46,0.43480,0.00403
12 Jun 2023 2:26,0.43513,0.00403
12 Jun 2023 4:06,0.43496,0.00402
12 Jun 2023 5:52,0.43481,0.00403
12 Jun 2023 7:32,0.43451,0.00403
12 Jun 2023 9:17,0.43394,0.00403
12 Jun 2023 10:57,0.43384,0.00401
12 Jun 2023 12:37,0.43358,0.00402
12 Jun 2023 14:17,0.43342,0.00403
12 Jun 2023 15:58,0.43431,0.00402
12 Jun 2023 17:38,0.43490,0.00402
12 Jun 2023 19:18,0.43487,0.00403
12 Jun 2023 21:03,0.43461,0.00402
12 Jun 2023 22:48,0.43444,0.00403
13 Jun 2023 0:28,0.43472,0.00403
13 Jun 2023 2:09,0.43502,0.00405
13 Jun 2023 3:49,0.43486,0.00404
13 Jun 2023 5:29,0.43467,0.00405
13 Jun 2023 7:09,0.43439,0.00403
13 Jun 2023 8:54,0.43403,0.00404
13 Jun 2023 10:40,0.43375,0.00401
13 Jun 2023 12:20,0.43342,0.00401
13 Jun 2023 14:00,0.43305,0.00401
13 Jun 2023 15:40,0.43362,0.00403
13 Jun 2023 17:20,0.43445,0.00403
13 Jun 2023 19:00,0.43474,0.00403
13 Jun 2023 20:41,0.43447,0.00405
13 Jun 2023 22:26,0.43419,0.00403
14 Jun 2023 0:11,0.43395,0.00404
14 Jun 2023 1:51,0.43382,0.00401
14 Jun 2023 3:31,0.43344,0.00402
14 Jun 2023 5:11,0.43349,0.00402
14 Jun 2023 6:52,0.43339,0.00403
14 Jun 2023 8:32,0.43321,0.00404
14 Jun 2023 10:17,0.43318,0.00402
14 Jun 2023 12:02,0.43300,0.00403
14 Jun 2023 13:42,0.43256,0.00403
14 Jun 2023 15:22,0.43298,0.00402
14 Jun 2023 17:03,0.43414,0.00402
14 Jun 2023 18:43,0.43457,0.00401
14 Jun 2023 20:23,0.43437,0.00403
14 Jun 2023 22:03,0.43396,0.00402
14 Jun 2023 23:48,0.43370,0.00401
15 Jun 2023 1:33,0.43339,0.00402
15 Jun 2023 3:14,0.43305,0.00402
15 Jun 2023 4:54,0.43310,0.00402
15 Jun 2023 6:34,0.43317,0.00402
15 Jun 2023 8:14,0.43305,0.00404
15 Jun 2023 9:54,0.43284,0.00402
15 Jun 2023 11:39,0.43290,0.00401
15 Jun 2023 13:25,0.43243,0.00402
15 Jun 2023 15:05,0.43279,0.00402
15 Jun 2023 16:45,0.43373,0.00403
15 Jun 2023 18:29,0.43420,0.00404
15 Jun 2023 20:05,0.43391,0.00401
15 Jun 2023 21:45,0.43346,0.00401
15 Jun 2023 23:26,0.43297,0.00403
16 Jun 2023 1:11,0.43297,0.00401
16 Jun 2023 2:56,0.43266,0.00402
16 Jun 2023 4:36,0.43277,0.00402
16 Jun 2023 6:16,0.43300,0.00401
16 Jun 2023 7:56,0.43306,0.00400
16 Jun 2023 9:37,0.43275,0.00400
16 Jun 2023 11:17,0.43254,0.00400
16 Jun 2023 13:02,0.43250,0.00401
16 Jun 2023 14:47,0.43268,0.00400
16 Jun 2023 16:27,0.43355,0.00403
16 Jun 2023 18:07,0.43424,0.00403
16 Jun 2023 19:48,0.43414,0.00403
16 Jun 2023 21:28,0.43376,0.00402
16 Jun 2023 23:08,0.43320,0.00402
17 Jun 2023 0:48,0.43325,0.00402
17 Jun 2023 2:33,0.43321,0.00403
17 Jun 2023 4:19,0.43322,0.00403
17 Jun 2023 5:59,0.43366,0.00402
17 Jun 2023 7:39,0.43341,0.00403
17 Jun 2023 9:19,0.43309,0.00404
17 Jun 2023 10:59,0.43274,0.00402
17 Jun 2023 12:39,0.43239,0.00402
17 Jun 2023 14:25,0.43254,0.00402
17 Jun 2023 16:10,0.43337,0.00401
17 Jun 2023 17:50,0.43396,0.00402
17 Jun 2023 19:30,0.43400,0.00405
17 Jun 2023 21:10,0.43392,0.00403
17 Jun 2023 22:50,0.43342,0.00403